sat.trackr.live / text

‹ back to catalog

AE2A

NORAD 64591 · 2025-135BR

PAYLOAD ACTIVE UNKNOWN

§ Identity

Operator
Country
JPN
Launch date
2025-06-23
Launch site
AFWTR
Launch vehicle
Mass (kg)
RCS (m²)

External: N2YO · Heavens-Above · Gunter

§ Orbital elements

Epoch: 2026-09-21T21:49:46.291584Z

Period
96.14 min
Inclination
97.7755°
Eccentricity
0.0005163
Mean motion
14.97855357 rev/d
Perigee alt
569.9 km
Apogee alt
577.1 km
Semi-major
6,951.7 km
B*
2.3118e-4
RAAN
19.6244°
Arg perigee
16.2906°
Mean anomaly
343.8481°
Rev number
6,843

§ Raw data

AE2A1 64591U 25135BR  26264.90956356  .00002661  00000+0  23118-3 0  99962 64591  97.7755  19.6244 0005163  16.2906 343.8481 14.97855357 68438

JSON: /api/v1/satellites/64591 · /tle

For live sub-satellite position, see the globe view (requires WebGL).

§ Visibility from observer

Set your observer location to see the next 7 days of passes ≥ 10°. The values pass through the URL so the page stays shareable.

No JS? Fill the form by hand. The geolocation button needs JavaScript.